Regional Weather Roundup
Issued by NWS

Home | Current Version | Previous Version | Text Only | Print | Product List | Glossary On
Versions: 1 2 3 4 5 6 7 8 9 10 11 12 13 14 15 16 17 18 19 20 21 22 23 24 25 26 27 28 29 30 31 32 33 34 35 36 37 38 39 40 41 42 43 44 45 46 47 48 49 50
000
ASUS43 KBIS 232310
RWRND

NORTH DAKOTA REGIONAL WEATHER ROUNDUP
NATIONAL WEATHER SERVICE BISMARCK ND
500 PM CST FRI FEB 23 2018

NOTE: "FAIR" INDICATES FEW OR NO CLOUDS BELOW 12,000 FEET WITH NO
SIGNIFICANT WEATHER AND/OR OBSTRUCTIONS TO VISIBILITY.


NDZ001>003-009>011-017-240000-
NORTHWEST NORTH DAKOTA

CITY           SKY/WX    TMP DP  RH WIND       PRES   REMARKS
WILLISTON      SUNNY     12   2  64 S12       30.08F WCI  -2
MINOT          SUNNY     17   7  64 SW10      30.12F WCI   5
MINOT AFB      SUNNY     16   7  68 SW8       30.11F WCI   5
$$

NDZ018>021-031>035-040>046-240000-
SOUTHWEST NORTH DAKOTA

CITY           SKY/WX    TMP DP  RH WIND       PRES   REMARKS
BISMARCK       SUNNY     19   7  59 SW7       30.19F WCI  10
DICKINSON      SUNNY     17   4  56 S10       30.05F WCI   5
GARRISON         N/A     13   5  70 S6        30.13F WCI   4
HETTINGER ARPT SUNNY     10   2  69 S7        30.12S WCI  -1
$$

NDZ004>008-012>016-024-026-027-054-240000-
NORTHEAST NORTH DAKOTA

CITY           SKY/WX    TMP DP  RH WIND       PRES   REMARKS
GRAND FORKS    FAIR      17   9  70 W13       30.20S WCI   4
GRND FRKS AFB  FAIR      17   7  65 NW10      30.20R WCI   5
DEVILS LAKE    FAIR      14   8  77 W13       30.17S WCI   0
$$

NDZ022-023-025-028>030-036>039-047>053-240000-
SOUTHEAST NORTH DAKOTA

CITY           SKY/WX    TMP DP  RH WIND       PRES   REMARKS
FARGO          FAIR      14   7  73 W7        30.24R WCI   4
JAMESTOWN      SUNNY     16   8  71 W10       30.18F WCI   4
$$




USA.gov is the U.S. government's official web portal to all federal, state and local government web resources and services.